sat.trackr.live / text

‹ back to catalog

COSMOS 2493 (SKRL-756 1)

NORAD 39490 · 2013-078A

PAYLOAD ACTIVE UNKNOWN

§ Identity

Operator
Country
CIS
Launch date
2013-12-28
Launch site
PLMSC
Launch vehicle
Mass (kg)
RCS (m²)
0.68

Purposes: military

External: N2YO · Heavens-Above · Gunter

§ Orbital elements

Epoch: 2026-09-12T04:52:36.747840Z

Period
95.84 min
Inclination
82.4154°
Eccentricity
0.0011767
Mean motion
15.02544420 rev/d
Perigee alt
550.9 km
Apogee alt
567.2 km
Semi-major
6,937.2 km
B*
1.7965e-4
RAAN
176.0397°
Arg perigee
316.2110°
Mean anomaly
43.8181°
Rev number
69,102

§ Raw data

COSMOS 2493 (SKRL-756 1)1 39490U 13078A   26255.20320310  .00002417  00000+0  17965-3 0  99992 39490  82.4154 176.0397 0011767 316.2110  43.8181 15.02544420691020

JSON: /api/v1/satellites/39490 · /tle

For live sub-satellite position, see the globe view (requires WebGL).

§ Visibility from observer

Set your observer location to see the next 7 days of passes ≥ 10°. The values pass through the URL so the page stays shareable.

No JS? Fill the form by hand. The geolocation button needs JavaScript.